Fremont, MI

11:06 AM EST on December 06, 2019 (GMT -0500)
Fremont

Weather History for KFFX - October, 2019

Change the Weather History Date:

Monday, October 14, 2019

  Actual Average (KMKG) Record (KMKG)
Temperature  
Mean Temperature 42 °F -  
Max Temperature 50 °F 59 °F 78 °F (1968)
Min Temperature 34 °F 44 °F 28 °F (1979)
Degree Days  
Heating Degree Days 23    
Moisture  
Dew Point 31 °F    
Average Humidity 69    
Maximum Humidity 97    
Minimum Humidity 35    
Precipitation  
Precipitation 0.00 in - - ()
Sea Level Pressure  
Sea Level Pressure 29.99 in    
Wind  
Wind Speed 5 mph ()    
Max Wind Speed 13 mph    
Max Gust Speed 18 mph    
Visibility 10.0 miles    
Events Rain    
Averages and records for this station are not official NWS values.
T = Trace of Precipitation, MM = Missing Value Source: Averaged Metar Reports

Daily Weather History Graph

Daily Weather History Graph

Search for Another Location

Airport or City:

Astronomy

Oct. 14, 2019 Rise Set
Actual Time 7:56 AM EDT 7:02 PM EDT
Civil Twilight 7:27 AM EDT 7:31 PM EDT
Nautical Twilight 6:54 AM EDT 8:04 PM EDT
Astronomical Twilight 6:21 AM EDT 8:37 PM EDT
Moon 7:52 PM EDT (10/14) 8:27 AM EDT (10/14)
Length of Visible Light 12h 03m
Length of Day
11h 06m
Waxing Gibbous, 99% of the Moon is Illuminated
Oct 14
Waxing Gibbous
Oct 21
Last Quarter
Oct 27
New
Nov 4
First Quarter
Nov 12
Full

Hourly Weather History & Observations

Time (EDT) Temp. Windchill Dew Point Humidity Pressure Visibility Wind Dir Wind Speed Gust Speed Precip Events Conditions
12:15 AM 41.4 °F 38.4 °F 29.5 °F 63% 29.86 in 10.0 mi WNW 4.6 mph - N/A   Overcast
12:35 AM 41.9 °F 39.0 °F 30.0 °F 63% 29.87 in 10.0 mi WNW 4.6 mph - N/A Rain Light Rain
12:36 AM 41.9 °F 39.0 °F 30.2 °F 63% 29.87 in 10.0 mi WNW 4.6 mph - N/A Rain Light Rain
12:59 AM 41.2 °F 38.2 °F 31.1 °F 67% 29.87 in 10.0 mi West 4.6 mph - N/A   Overcast
1:17 AM 41.0 °F 38.0 °F 32.0 °F 70% 29.87 in 10.0 mi West 4.6 mph - N/A   Overcast
1:35 AM 41.0 °F 39.0 °F 32.0 °F 70% 29.87 in 10.0 mi West 3.5 mph - N/A   Overcast
1:55 AM 41.0 °F 37.1 °F 31.5 °F 69% 29.87 in 10.0 mi WNW 5.8 mph - N/A   Overcast
2:15 AM 41.2 °F 36.6 °F 30.4 °F 65% 29.88 in 10.0 mi WNW 6.9 mph - N/A   Overcast
2:38 AM 41.2 °F 37.3 °F 30.2 °F 65% 29.88 in 10.0 mi WNW 5.8 mph - N/A   Overcast
2:56 AM 41.0 °F 38.0 °F 30.0 °F 65% 29.88 in 10.0 mi West 4.6 mph - N/A   Overcast
3:15 AM 40.8 °F 37.8 °F 30.9 °F 68% 29.88 in 10.0 mi West 4.6 mph - N/A   Overcast
3:35 AM 40.3 °F - 30.0 °F 67% 29.88 in 10.0 mi Calm Calm - N/A   Overcast
3:59 AM 40.1 °F 36.9 °F 30.2 °F 68% 29.89 in 10.0 mi West 4.6 mph - N/A   Overcast
4:17 AM 39.4 °F 37.2 °F 31.1 °F 72% 29.89 in 10.0 mi West 3.5 mph - N/A   Mostly Cloudy
4:35 AM 39.0 °F 36.8 °F 32.0 °F 76% 29.90 in 10.0 mi West 3.5 mph - N/A   Mostly Cloudy
4:36 AM 39.0 °F 36.8 °F 31.8 °F 75% 29.90 in 10.0 mi West 3.5 mph - N/A   Mostly Cloudy
4:55 AM 39.0 °F 35.7 °F 31.8 °F 75% 29.91 in 10.0 mi West 4.6 mph - N/A   Mostly Cloudy
5:15 AM 37.8 °F 34.2 °F 33.3 °F 84% 29.92 in 10.0 mi West 4.6 mph - N/A   Scattered Clouds
5:38 AM 37.8 °F - 33.1 °F 83% 29.92 in 10.0 mi Calm Calm - N/A   Scattered Clouds
5:56 AM 37.2 °F 34.7 °F 33.8 °F 87% 29.93 in 10.0 mi WSW 3.5 mph - N/A   Mostly Cloudy
6:15 AM 37.2 °F 34.7 °F 33.8 °F 87% 29.93 in 10.0 mi West 3.5 mph - N/A   Scattered Clouds
6:16 AM 37.2 °F 34.7 °F 33.8 °F 87% 29.93 in 10.0 mi West 3.5 mph - N/A   Scattered Clouds
6:35 AM 36.5 °F 33.9 °F 33.6 °F 89% 29.93 in 10.0 mi West 3.5 mph - N/A   Clear
6:36 AM 36.5 °F 33.9 °F 33.8 °F 90% 29.93 in 10.0 mi West 3.5 mph - N/A   Clear
6:59 AM 35.2 °F 32.4 °F 33.6 °F 94% 29.94 in 10.0 mi WSW 3.5 mph - N/A   Clear
7:17 AM 36.3 °F - 34.2 °F 92% 29.94 in 10.0 mi Calm Calm - N/A   Clear
7:35 AM 35.8 °F 33.0 °F 34.0 °F 93% 29.95 in 10.0 mi SW 3.5 mph - N/A   Clear
7:55 AM 34.7 °F 30.6 °F 33.3 °F 94% 29.95 in 10.0 mi SW 4.6 mph - N/A   Clear
8:15 AM 34.7 °F 31.8 °F 33.8 °F 97% 29.96 in 10.0 mi WSW 3.5 mph - N/A   Clear
8:19 AM 34.9 °F 32.0 °F 34.0 °F 97% 29.96 in 10.0 mi WSW 3.5 mph - N/A   Clear
8:38 AM 37.0 °F 34.5 °F 34.9 °F 92% 29.97 in 10.0 mi WSW 3.5 mph - N/A   Clear
8:56 AM 37.9 °F - 35.8 °F 92% 29.98 in 10.0 mi Calm Calm - N/A   Clear
9:15 AM 41.0 °F 38.0 °F 36.0 °F 82% 29.99 in 10.0 mi West 4.6 mph - N/A   Clear
9:16 AM 41.0 °F 38.0 °F 36.1 °F 83% 29.99 in 10.0 mi West 4.6 mph - N/A   Clear
9:35 AM 42.6 °F 39.9 °F 34.9 °F 74% 30.00 in 10.0 mi West 4.6 mph - N/A   Clear
9:36 AM 42.8 °F 38.6 °F 35.2 °F 75% 30.00 in 10.0 mi West 6.9 mph - N/A   Clear
9:59 AM 43.9 °F 39.9 °F 33.1 °F 66% 30.00 in 10.0 mi WNW 6.9 mph - N/A   Clear
10:17 AM 45.0 °F 40.1 °F 32.4 °F 61% 30.01 in 10.0 mi WNW 9.2 mph - N/A   Clear
10:35 AM 45.0 °F 41.2 °F 31.8 °F 60% 30.01 in 10.0 mi WNW 6.9 mph - N/A   Clear
10:55 AM 45.1 °F 42.0 °F 31.1 °F 58% 30.01 in 10.0 mi West 5.8 mph - N/A   Mostly Cloudy
11:15 AM 46.6 °F - 29.8 °F 52% 30.02 in 10.0 mi WNW 10.4 mph - N/A   Overcast
11:20 AM 45.9 °F 41.7 °F 28.4 °F 51% 30.02 in 10.0 mi West 8.1 mph - N/A   Overcast
11:38 AM 47.3 °F - 28.8 °F 49% 30.02 in 10.0 mi West 12.7 mph 18.4 mph N/A   Scattered Clouds
11:56 AM 47.1 °F - 25.7 °F 43% 30.03 in 10.0 mi West 11.5 mph - N/A   Mostly Cloudy
12:15 PM 45.9 °F 41.7 °F 28.0 °F 50% 30.02 in 10.0 mi West 8.1 mph - N/A   Mostly Cloudy
12:35 PM 46.8 °F - 26.8 °F 46% 30.03 in 10.0 mi West 9.2 mph - N/A   Mostly Cloudy
12:36 PM 47.3 °F - 26.8 °F 45% 30.03 in 10.0 mi West 9.2 mph - N/A   Mostly Cloudy
12:59 PM 50.5 °F - 25.9 °F 38% 30.03 in 10.0 mi WNW 9.2 mph 17.3 mph N/A   Overcast
1:17 PM 48.4 °F - 24.6 °F 39% 30.03 in 10.0 mi WNW 10.4 mph 17.3 mph N/A   Overcast
1:35 PM 46.4 °F 42.9 °F 23.7 °F 41% 30.03 in 10.0 mi West 6.9 mph - N/A   Mostly Cloudy
1:55 PM 46.4 °F 41.1 °F 26.1 °F 45% 30.03 in 10.0 mi WSW 11.5 mph 16.1 mph N/A   Mostly Cloudy
2:15 PM 46.8 °F - 25.9 °F 44% 30.03 in 10.0 mi West 10.4 mph 17.3 mph N/A   Mostly Cloudy
2:20 PM 46.4 °F 42.4 °F 25.0 °F 43% 30.03 in 10.0 mi WSW 8.1 mph 17.3 mph N/A   Mostly Cloudy
2:38 PM 47.1 °F - 20.5 °F 35% 30.03 in 10.0 mi West 12.7 mph 18.4 mph N/A   Mostly Cloudy
2:56 PM 47.1 °F - 23.4 °F 39% 30.03 in 10.0 mi WNW 11.5 mph - N/A   Overcast
3:15 PM 47.3 °F - 24.6 °F 41% 30.03 in 10.0 mi West 8.1 mph 16.1 mph N/A   Overcast
3:35 PM 47.5 °F - 26.1 °F 43% 30.03 in 10.0 mi WNW 11.5 mph - N/A   Overcast
3:36 PM 47.5 °F - 26.1 °F 43% 30.03 in 10.0 mi West 9.2 mph - N/A   Overcast
3:59 PM 47.3 °F - 26.1 °F 44% 30.04 in 10.0 mi WSW 9.2 mph - N/A   Overcast
4:35 PM 46.9 °F - 26.1 °F 44% 30.04 in 10.0 mi West 8.1 mph - N/A   Overcast
4:55 PM 46.9 °F - 25.2 °F 43% 30.04 in 10.0 mi West 10.4 mph - N/A   Mostly Cloudy
4:56 PM 46.8 °F - 25.2 °F 43% 30.04 in 10.0 mi West 9.2 mph - N/A   Scattered Clouds
5:15 PM 47.1 °F - 25.0 °F 42% 30.04 in 10.0 mi West 8.1 mph - N/A   Scattered Clouds
5:37 PM 48.6 °F - 25.2 °F 40% 30.04 in 10.0 mi West 9.2 mph - N/A   Mostly Cloudy
5:56 PM 47.7 °F - 25.9 °F 43% 30.05 in 10.0 mi WSW 5.8 mph - N/A   Scattered Clouds
6:15 PM 45.7 °F 42.0 °F 25.7 °F 46% 30.05 in 10.0 mi WSW 6.9 mph - N/A   Clear
6:16 PM 45.5 °F 41.3 °F 26.1 °F 47% 30.05 in 10.0 mi WSW 8.1 mph - N/A   Clear
6:35 PM 44.2 °F 41.8 °F 28.2 °F 53% 30.05 in 10.0 mi WSW 4.6 mph - N/A   Clear
6:36 PM 44.1 °F 42.5 °F 28.2 °F 54% 30.05 in 10.0 mi WSW 3.5 mph - N/A   Clear
6:58 PM 42.8 °F 41.1 °F 28.9 °F 58% 30.05 in 10.0 mi WSW 3.5 mph - N/A   Clear
7:17 PM 41.4 °F - 30.4 °F 65% 30.05 in 10.0 mi Calm Calm - N/A   Clear
7:35 PM 40.3 °F - 30.0 °F 67% 30.05 in 10.0 mi Calm Calm - N/A   Clear
7:55 PM 37.6 °F - 34.5 °F 89% 30.05 in 10.0 mi Calm Calm - N/A   Clear
8:15 PM 37.6 °F - 34.9 °F 90% 30.06 in 10.0 mi Calm Calm - N/A   Clear
8:20 PM 38.1 °F - 35.1 °F 89% 30.06 in 10.0 mi Calm Calm - N/A   Clear
8:38 PM 36.5 °F - 34.3 °F 92% 30.06 in 10.0 mi Calm Calm - N/A   Clear
8:56 PM 36.9 °F - 34.3 °F 91% 30.06 in 10.0 mi Calm Calm - N/A   Clear
9:15 PM 36.5 °F - 34.0 °F 91% 30.06 in 10.0 mi Calm Calm - N/A   Clear
9:35 PM 36.1 °F - 34.3 °F 93% 30.06 in 10.0 mi Calm Calm - N/A   Clear
9:36 PM 36.1 °F - 34.2 °F 93% 30.06 in 10.0 mi Calm Calm - N/A   Clear
9:59 PM 36.9 °F - 34.9 °F 93% 30.07 in 10.0 mi Calm Calm - N/A   Clear
10:17 PM 36.3 °F - 33.8 °F 91% 30.07 in 10.0 mi Calm Calm - N/A   Clear
10:35 PM 36.0 °F - 34.3 °F 94% 30.07 in 10.0 mi Calm Calm - N/A   Clear
10:55 PM 36.1 °F - 34.5 °F 94% 30.07 in 10.0 mi Calm Calm - N/A   Clear
11:15 PM 35.6 °F - 34.5 °F 96% 30.07 in 10.0 mi Calm Calm - N/A   Clear
11:20 PM 35.8 °F - 34.7 °F 96% 30.07 in 10.0 mi Calm Calm - N/A   Clear
11:38 PM 35.4 °F - 34.0 °F 94% 30.07 in 10.0 mi Calm Calm - N/A   Clear
11:56 PM 35.6 °F - 34.0 °F 94% 30.07 in 10.0 mi Calm Calm - N/A   Clear